User: anonymous   Login
Location: Newark
(51.5033°N, 0.1199°W)
Time: 13:29:04
(UTC+00:00)
Language:

ITAMSAT 1 - Orbit

View from above orbital plane
View from above orbital plane
View from above satellite
View from above satellite

Ground track
Ground track

The orbit data is extracted from the following two-line orbital elements,

1 22826U 93061D   19295.90157187 +.00000001 +00000-0 +18428-4 0  9991
2 22826 098.9079 287.4563 0008674 346.9282 013.1673 14.30403199359943
Epoch (UTC): 22 October 2019 21:38:15
Eccentricity: 0.0008674
inclination: 98.9079°
perigee height: 784 km
apogee height: 796 km
right ascension of ascending node: 287.4563°
argument of perigee: 346.9282°
revolutions per day: 14.30403199
mean anomaly at epoch: 13.1673°
orbit number at epoch: 35994

The dashed part of the orbit path shows where the satellite is in the earth's shadow,  

DLR